Stuttgart Echterdingen, Germany

09:15 AM CEST am 29. März 2017 (GMT +0200)
Stuttgart

Wetter Verlauf für EDDS - Februar, 2017

Change the Weather History Date:

Freitag, Februar 17, 2017

  Actual Average Record
Temperature  
mittlereTemperatur 44 °F -  
Max. Temperatur 48 °F 42 °F 51 °F (2014)
Min.Temperatur 39 °F 29 °F 17 °F (2008)
Degree Days  
Heizgradtage 22    
Moisture  
Taupunkt 39 °F    
Average Humidity 83    
Maximum Humidity 93    
Minimum Humidity 58    
Niederschlag  
Niederschlag 0.00 inch - - ()
Luftdruck in Meereshöhe  
Luftdruck in Meereshöhe 30.28 inch    
Wind  
Windgeschwindigkeit 6 mph ()    
Max. Windgeschwindigkeit 16 mph    
Max Gust Speed -    
Sichtweite 6.1 Meilen    
Ereignisse Regen    
Averages and records for this station are not official NWS values.
T = Trace of Precipitation, MM = Missing Value Source: Averaged Metar Reports

Daily Weather History Graph

Daily Weather History Graph

Search for Another Location

Airport or City:

Trip Planner

Search our weather history database for the weather conditions in past years. The results will help you decide how hot, cold, wet, or windy it might be!

Date:

Astronomie

Feb. 17, 2017 Aufgang Untergang
Genaue Zeit 07:27 CET 17:47 CET
Bürgerliche Dämmerung 06:55 CET 18:19 CET
Nautische Dämmerung 06:18 CET 18:56 CET
Astronomische Dämmerung 05:42 CET 19:33 CET
Mond kein Mondaufgang 10:30 CET (2/17)
Länge des sichtbaren Lichts 11h 24m
Tageslänge
10h 20m
Drittes Viertel, 63% of the Moon is Illuminated
Feb 17
Drittes Viertel
Feb 18
Letztes Viertel
Feb 26
Neu
Mrz 5
Erstes Viertel
Mrz 12
Vollmond

Hourly Weather History & Observations

Zeit (CET) Temp. Windchill Taupunkt Feuchtigkeit Druck Sichtweite Wind Dir Windgeschwindigkeit Böengeschwindigkeit Precip Ereignisse Wetterzustand
12:20 AM 42.8 °F 41.1 °F 39.2 °F 87% 30.33 inch 6.2 mi West-Südwest 3.5 mph - N/A   Wolkig
12:50 AM 44.6 °F 41.4 °F 41.0 °F 87% 30.30 inch 6.2 mi West-Nordwest 5.8 mph - N/A Regen Leichte Regenschauer
1:20 AM 44.6 °F 42.2 °F 42.8 °F 93% 30.30 inch 6.2 mi West 4.6 mph - N/A   Wolkig
1:50 AM 44.6 °F - 42.8 °F 93% 30.30 inch 6.2 mi West-Südwest 2.3 mph - N/A Regen Leichte Regenschauer
2:20 AM 44.6 °F - 42.8 °F 93% 30.30 inch 6.2 mi Wechselnd 2.3 mph - N/A   Wolkig
2:50 AM 44.6 °F - 42.8 °F 93% 30.30 inch 6.2 mi Wechselnd 2.3 mph - N/A   Wolkig
3:20 AM 44.6 °F - 42.8 °F 93% 30.30 inch 6.2 mi Süd-Südwest 2.3 mph - N/A   Wolkig
3:50 AM 44.6 °F 43.1 °F 42.8 °F 93% 30.27 inch 6.2 mi West-Südwest 3.5 mph - N/A   Wolkig
4:20 AM 44.6 °F 40.7 °F 42.8 °F 93% 30.27 inch 3.7 mi West 6.9 mph - N/A Regen Regenschauer
4:50 AM 44.6 °F 38.8 °F 41.0 °F 87% 30.27 inch 4.3 mi West 11.5 mph - N/A Regen Leichter Regen
5:20 AM 42.8 °F 38.6 °F 41.0 °F 93% 30.27 inch 6.2 mi West 6.9 mph - N/A Regen Leichter Regen
5:50 AM 42.8 °F 40.1 °F 41.0 °F 93% 30.27 inch 5.6 mi West 4.6 mph - N/A Regen Leichter Regen
6:20 AM 42.8 °F 38.0 °F 41.0 °F 93% 30.27 inch 6.2 mi Nordwest 8.1 mph - N/A Regen Leichter Regen
6:50 AM 42.8 °F - 41.0 °F 93% 30.27 inch 6.2 mi Wechselnd 2.3 mph - N/A Regen Leichter Regen
7:20 AM 42.8 °F 40.1 °F 41.0 °F 93% 30.27 inch 5.0 mi West 4.6 mph - N/A Regen Leichter Regen
7:50 AM 42.8 °F 39.3 °F 39.2 °F 87% 30.27 inch 6.2 mi West 5.8 mph - N/A Regen Leichter Regen
8:20 AM 42.8 °F 38.6 °F 39.2 °F 87% 30.27 inch 6.2 mi West-Südwest 6.9 mph - N/A Regen Leichter Regen
8:50 AM 42.8 °F 39.3 °F 39.2 °F 87% 30.27 inch 6.2 mi Wechselnd 5.8 mph - N/A Regen Leichter Regen
9:20 AM 42.8 °F 39.3 °F 39.2 °F 87% 30.30 inch 6.2 mi Südwest 5.8 mph - N/A Regen Leichter Regen
9:50 AM 42.8 °F 39.3 °F 39.2 °F 87% 30.30 inch 6.2 mi Südwest 5.8 mph - N/A Regen Leichter Regen
10:20 AM 42.8 °F 38.6 °F 39.2 °F 87% 30.30 inch 6.2 mi West-Südwest 6.9 mph - N/A   Teils Wolkig
10:50 AM 42.8 °F 38.0 °F 39.2 °F 87% 30.30 inch 6.2 mi West-Südwest 8.1 mph - N/A   Teils Wolkig
11:20 AM 44.6 °F 40.2 °F 41.0 °F 87% 30.27 inch 6.2 mi West-Südwest 8.1 mph - N/A   Teils Wolkig
11:50 AM 46.4 °F 41.9 °F 41.0 °F 81% 30.27 inch 6.2 mi West 9.2 mph - N/A   Teils Wolkig
12:20 PM 46.4 °F 40.7 °F 37.4 °F 71% 30.27 inch 6.2 mi West 12.7 mph - N/A   Wolkig
12:50 PM 46.4 °F 41.9 °F 37.4 °F 71% 30.27 inch 6.2 mi West 9.2 mph - N/A   Wolkig
1:20 PM 48.2 °F - 37.4 °F 66% 30.27 inch 6.2 mi West-Nordwest 12.7 mph - N/A   Teils Wolkig
1:50 PM 48.2 °F - 35.6 °F 62% 30.27 inch 6.2 mi West 16.1 mph - N/A   Teils Wolkig
2:20 PM 46.4 °F 40.4 °F 37.4 °F 71% 30.27 inch 6.2 mi West-Nordwest 13.8 mph - N/A Regen Leichte Regenschauer
2:50 PM 48.2 °F - 35.6 °F 62% 30.27 inch 6.2 mi West 11.5 mph - N/A   Wolkig
3:20 PM 46.4 °F 41.5 °F 35.6 °F 66% 30.27 inch 6.2 mi West 10.4 mph - N/A   Teils Wolkig
3:50 PM 48.2 °F - 35.6 °F 62% 30.27 inch 6.2 mi West-Südwest 6.9 mph - N/A   Wolkig
4:20 PM 48.2 °F - 33.8 °F 58% 30.27 inch 6.2 mi West-Südwest 6.9 mph - N/A   Wolkig
4:50 PM 46.4 °F 41.1 °F 33.8 °F 62% 30.27 inch 6.2 mi West 11.5 mph - N/A   Wolkig
5:20 PM 46.4 °F 41.5 °F 35.6 °F 66% 30.27 inch 6.2 mi West 10.4 mph - N/A   Wolkig
5:50 PM 44.6 °F 38.4 °F 35.6 °F 71% 30.27 inch 6.2 mi West 12.7 mph - N/A   Wolkig
6:20 PM 44.6 °F 40.2 °F 37.4 °F 76% 30.27 inch 6.2 mi West 8.1 mph - N/A Regen Leichte Regenschauer
6:50 PM 42.8 °F 38.6 °F 37.4 °F 81% 30.27 inch 6.2 mi West-Südwest 6.9 mph - N/A   Wolkig
7:20 PM 42.8 °F 38.6 °F 37.4 °F 81% 30.30 inch 6.2 mi West-Südwest 6.9 mph - N/A Regen Leichter Regen
7:50 PM 41.0 °F 37.1 °F 37.4 °F 87% 30.30 inch 6.2 mi West-Südwest 5.8 mph - N/A   Wolkig
8:20 PM 41.0 °F 36.4 °F 37.4 °F 87% 30.30 inch 6.2 mi West 6.9 mph - N/A   Wolkig
8:50 PM 42.8 °F 38.6 °F 37.4 °F 81% 30.30 inch 6.2 mi West-Südwest 6.9 mph - N/A   Wolkig
9:20 PM 41.0 °F 34.7 °F 37.4 °F 87% 30.30 inch 6.2 mi West 10.4 mph - N/A   Wolkig
9:50 PM 41.0 °F 35.2 °F 37.4 °F 87% 30.30 inch 6.2 mi West-Südwest 9.2 mph - N/A   Wolkig
10:20 PM 41.0 °F 36.4 °F 37.4 °F 87% 30.30 inch 6.2 mi West-Südwest 6.9 mph - N/A   Wolkig
10:50 PM 39.2 °F 35.0 °F 37.4 °F 93% 30.30 inch 6.2 mi West 5.8 mph - N/A   Wolkig
11:20 PM 39.2 °F 37.0 °F 37.4 °F 93% 30.30 inch 6.2 mi West-Südwest 3.5 mph - N/A   Wolkig
11:50 PM 41.0 °F 39.0 °F 37.4 °F 87% 30.30 inch 6.2 mi West 3.5 mph - N/A   Wolkig